Date String (YYYY-MM-DD hh:mm:ss) UTC,Instrument flags,Ambient pressure (hPa),Sample flow (lpm),Bypass flow (lpm),Sample temperature (°C),Ambient temperature (°C),ASC tube jacket temperature (°C),LED temperature (°C),Box temperature (°C),Sample RH (%),Span deviation,Mass concentration (μg/m³),Mass concentration (μg/m³),Mass concentration (μg/m³)
DateTimeUTC,F1_M11,P_M11,Q1_M11,Q2_M11,T1_M11,T2_M11,T3_M11,T4_M11,T5_M11,U1_M11,ZSPAN_M11,X0_M11,X2_M11,X1_M11
2023-02-21 20:00:00,,0803.2,4.99,0.00,23.6,22.3,00.0,32.4,25.4,11.2,0000.0,0004.36,0001.46,0000.53
2023-02-21 20:01:00,,0803.1,5.01,0.00,23.6,22.3,00.0,32.4,25.4,11.3,0000.0,0004.29,0001.41,0000.54
2023-02-21 20:02:00,,0803.0,4.99,0.00,23.6,22.3,00.0,32.4,25.4,11.4,0000.0,0003.69,0001.45,0000.54
2023-02-21 20:03:00,,0803.0,5.00,0.00,23.6,22.3,00.0,32.4,25.4,11.3,0000.0,0003.86,0001.48,0000.54
2023-02-21 20:04:00,,0803.2,5.00,0.00,23.6,22.3,00.0,32.4,25.4,11.4,0000.0,0004.61,0001.47,0000.53
2023-02-21 20:05:00,,0803.2,5.00,0.00,23.6,22.3,00.0,32.4,25.4,11.3,0000.0,0004.82,0001.43,0000.53
2023-02-21 20:06:00,,0803.2,5.00,0.00,23.6,22.3,00.0,32.5,25.4,11.2,0000.0,0004.87,0001.45,0000.54
2023-02-21 20:07:00,,0803.2,4.99,0.00,23.7,22.4,00.0,32.5,25.5,11.5,0000.0,0004.94,0001.47,0000.54
2023-02-21 20:08:00,,0803.2,5.01,0.00,23.7,22.4,00.0,32.5,25.5,11.4,0000.0,0004.98,0001.48,0000.54
2023-02-21 20:09:00,,0803.1,5.00,0.00,23.7,22.4,00.0,32.5,25.5,11.4,0000.0,0004.83,0001.47,0000.54
2023-02-21 20:10:00,,0803.0,5.00,0.00,23.7,22.4,00.0,32.5,25.5,11.4,0000.0,0004.52,0001.41,0000.55
2023-02-21 20:11:00,,0803.0,5.00,0.00,23.7,22.4,00.0,32.5,25.5,11.4,0000.0,0004.43,0001.41,0000.55
2023-02-21 20:12:00,,0803.1,4.98,0.00,23.7,22.5,00.0,32.5,25.5,11.5,0000.0,0005.02,0001.49,0000.56
2023-02-21 20:13:00,,0803.1,5.00,0.00,23.7,22.5,00.0,32.5,25.6,11.7,0000.0,0005.61,0001.54,0000.57
2023-02-21 20:14:00,,0803.1,4.99,0.00,23.7,22.5,00.0,32.5,25.5,11.7,0000.0,0005.74,0001.53,0000.58
2023-02-21 20:15:00,,0803.1,5.01,0.00,23.7,22.6,00.0,32.5,25.6,11.5,0000.0,0005.22,0001.56,0000.60
2023-02-21 20:16:00,,0802.9,5.01,0.00,23.8,22.6,00.0,32.5,25.6,11.3,0000.0,0005.07,0001.61,0000.60
2023-02-21 20:17:00,,0802.8,4.99,0.00,23.8,22.6,00.0,32.5,25.6,11.4,0000.0,0005.09,0001.61,0000.60
2023-02-21 20:18:00,,0802.8,5.00,0.00,23.8,22.6,00.0,32.6,25.6,11.4,0000.0,0005.29,0001.61,0000.60
2023-02-21 20:19:00,,0802.8,5.00,0.00,23.8,22.7,00.0,32.6,25.6,11.4,0000.0,0005.22,0001.59,0000.62
2023-02-21 20:20:00,,0802.8,5.00,0.00,23.8,22.7,00.0,32.6,25.7,11.6,0000.0,0005.15,0001.59,0000.63
2023-02-21 20:21:00,,0802.8,5.00,0.00,23.8,22.7,00.0,32.6,25.7,11.5,0000.0,0005.49,0001.63,0000.64
2023-02-21 20:22:00,,0802.8,5.00,0.00,23.9,22.8,00.0,32.6,25.7,11.4,0000.0,0006.61,0001.61,0000.66
2023-02-21 20:23:00,,0802.8,4.97,0.00,23.9,22.8,00.0,32.6,25.7,11.4,0000.0,0006.06,0001.53,0000.66
2023-02-21 20:24:00,,0802.8,4.99,0.00,23.9,22.8,00.0,32.6,25.8,11.5,0000.0,0005.77,0001.46,0000.65
2023-02-21 20:25:00,,0802.8,5.00,0.00,23.9,22.8,00.0,32.6,25.8,11.4,0000.0,0006.24,0001.43,0000.63
2023-02-21 20:26:00,,0802.8,5.00,0.00,23.9,22.9,00.0,32.7,25.9,11.3,0000.0,0006.00,0001.41,0000.62
2023-02-21 20:27:00,,0802.7,5.00,0.00,23.9,22.9,00.0,32.7,25.9,11.5,0000.0,0005.96,0001.38,0000.62
2023-02-21 20:28:00,,0802.7,5.01,0.00,24.0,22.9,00.0,32.7,25.9,11.4,0000.0,0006.08,0001.40,0000.63
2023-02-21 20:29:00,,0802.7,5.00,0.00,24.0,22.9,00.0,32.7,25.9,11.3,0000.0,0005.88,0001.38,0000.62
2023-02-21 20:30:00,,0802.7,5.00,0.00,24.0,22.9,00.0,32.7,25.9,11.3,0000.0,0005.78,0001.35,0000.61
2023-02-21 20:31:00,,0802.7,4.99,0.00,24.0,22.9,00.0,32.7,25.9,11.5,0000.0,0005.64,0001.29,0000.60
2023-02-21 20:32:00,,0802.6,5.00,0.00,24.0,23.0,00.0,32.7,26.0,11.3,0000.0,0005.92,0001.20,0000.58
2023-02-21 20:33:00,,0802.5,5.00,0.00,24.0,23.0,00.0,32.7,26.0,11.2,0000.0,0005.01,0001.19,0000.56
2023-02-21 20:34:00,,0802.4,5.00,0.00,24.1,23.0,00.0,32.8,26.0,11.0,0000.0,0004.91,0001.18,0000.55
2023-02-21 20:35:00,,0802.4,5.01,0.00,24.1,23.0,00.0,32.8,26.0,10.8,0000.0,0004.81,0001.19,0000.54
2023-02-21 20:36:00,,0802.4,5.01,0.00,24.1,23.1,00.0,32.8,26.1,10.8,0000.0,0004.80,0001.18,0000.55
2023-02-21 20:37:00,,0802.4,5.01,0.00,24.1,23.1,00.0,32.8,26.1,10.7,0000.0,0004.81,0001.17,0000.54
2023-02-21 20:38:00,,0802.3,5.00,0.00,24.2,23.1,00.0,32.8,26.1,10.7,0000.0,0004.83,0001.19,0000.53
2023-02-21 20:39:00,,0802.4,4.99,0.00,24.2,23.2,00.0,32.8,26.1,10.9,0000.0,0004.69,0001.16,0000.53
2023-02-21 20:40:00,,0802.4,4.99,0.00,24.2,23.2,00.0,32.9,26.1,10.7,0000.0,0004.76,0001.17,0000.52
2023-02-21 20:41:00,,0802.3,5.00,0.00,24.2,23.2,00.0,32.9,26.1,10.8,0000.0,0004.98,0001.19,0000.52
2023-02-21 20:42:00,,0802.3,5.00,0.00,24.2,23.2,00.0,32.9,26.1,10.8,0000.0,0005.30,0001.27,0000.52
2023-02-21 20:43:00,,0802.3,5.00,0.00,24.2,23.2,00.0,32.9,26.1,10.4,0000.0,0004.88,0001.35,0000.52
2023-02-21 20:44:00,,0802.3,5.01,0.00,24.2,23.2,00.0,32.9,26.1,10.4,0000.0,0004.70,0001.37,0000.53
2023-02-21 20:45:00,,0802.2,5.00,0.00,24.2,23.2,00.0,32.9,26.0,10.4,0000.0,0004.77,0001.37,0000.53
2023-02-21 20:46:00,,0802.2,4.99,0.00,24.2,23.2,00.0,33.0,26.1,10.4,0000.0,0004.53,0001.39,0000.53
2023-02-21 20:47:00,,0802.2,4.99,0.00,24.3,23.2,00.0,33.0,26.1,10.4,0000.0,0004.06,0001.40,0000.53
2023-02-21 20:48:00,,0802.2,4.99,0.00,24.3,23.2,00.0,33.0,26.1,10.4,0000.0,0004.03,0001.40,0000.52
2023-02-21 20:49:00,,0802.2,5.00,0.00,24.3,23.2,00.0,33.0,26.2,10.3,0000.0,0004.04,0001.42,0000.52
2023-02-21 20:50:00,,0802.2,5.01,0.00,24.3,23.2,00.0,33.0,26.1,10.2,0000.0,0004.06,0001.45,0000.52
2023-02-21 20:51:00,,0802.2,5.02,0.00,24.3,23.2,00.0,33.1,26.2,10.4,0000.0,0004.14,0001.46,0000.52
2023-02-21 20:52:00,,0802.2,4.98,0.00,24.3,23.2,00.0,33.1,26.2,10.4,0000.0,0004.44,0001.43,0000.52
2023-02-21 20:53:00,,0802.3,4.97,0.00,24.3,23.2,00.0,33.1,26.3,10.2,0000.0,0005.33,0001.36,0000.51
2023-02-21 20:54:00,,0802.2,5.01,0.00,24.4,23.3,00.0,33.1,26.3,10.2,0000.0,0005.12,0001.32,0000.51
2023-02-21 20:55:00,,0802.2,5.01,0.00,24.4,23.3,00.0,33.1,26.3,10.5,0000.0,0004.88,0001.27,0000.51
2023-02-21 20:56:00,,0802.2,5.02,0.00,24.4,23.3,00.0,33.1,26.3,10.3,0000.0,0004.80,0001.29,0000.50
2023-02-21 20:57:00,,0802.3,5.00,0.00,24.4,23.3,00.0,33.1,26.3,10.3,0000.0,0004.86,0001.31,0000.51
2023-02-21 20:58:00,,0802.2,5.00,0.00,24.4,23.4,00.0,33.1,26.4,10.4,0000.0,0004.72,0001.31,0000.51
2023-02-21 20:59:00,,0802.0,4.99,0.00,24.4,23.4,00.0,33.2,26.3,10.4,0000.0,0004.74,0001.32,0000.52
